Time,TemperatureF,DewpointF,PressureIn,WindDirection,WindDirectionDegrees,WindSpeedMPH,WindSpeedGustMPH,Humidity,HourlyPrecipIn,Conditions,Clouds,dailyrainin,SoftwareType,DateUTC
2015-01-25 00:02:00,63.9,26.4,30.12,North,0,4.3,-999.0,24,-99.99,,,0.00,Acu-Link.com,2015-01-25 07:02:00,
2015-01-25 00:17:00,60.3,25.2,30.12,NNW,337,3.1,-999.0,26,-99.99,,,0.00,Acu-Link.com,2015-01-25 07:17:00,
2015-01-25 00:32:00,59.4,25.4,30.11,NNW,337,4.3,-999.0,27,-99.99,,,0.00,Acu-Link.com,2015-01-25 07:32:00,
2015-01-25 00:47:00,61.2,26.9,30.11,North,0,5.1,-999.0,27,-99.99,,,0.00,Acu-Link.com,2015-01-25 07:47:00,
2015-01-25 01:02:00,61.7,26.5,30.10,North,0,4.7,-999.0,26,-99.99,,,0.00,Acu-Link.com,2015-01-25 08:02:00,
2015-01-25 01:18:00,62.4,26.1,30.10,North,0,6.7,-999.0,25,-99.99,,,0.00,Acu-Link.com,2015-01-25 08:18:00,
2015-01-25 01:33:00,62.6,26.3,30.10,North,0,7.4,-999.0,25,-99.99,,,0.00,Acu-Link.com,2015-01-25 08:33:00,
2015-01-25 01:48:00,61.5,25.4,30.10,North,0,6.3,-999.0,25,-99.99,,,0.00,Acu-Link.com,2015-01-25 08:48:00,
2015-01-25 02:03:00,61.5,25.4,30.10,North,0,5.1,-999.0,25,-99.99,,,0.00,Acu-Link.com,2015-01-25 09:03:00,
2015-01-25 02:18:00,61.3,25.2,30.10,NNE,22,4.7,-999.0,25,-99.99,,,0.00,Acu-Link.com,2015-01-25 09:18:00,
2015-01-25 02:34:00,60.8,25.7,30.10,NE,45,1.6,-999.0,26,-99.99,,,0.00,Acu-Link.com,2015-01-25 09:34:00,
2015-01-25 02:49:00,59.9,25.8,30.10,NE,45,2.7,-999.0,27,-99.99,,,0.00,Acu-Link.com,2015-01-25 09:49:00,
2015-01-25 03:04:00,59.4,25.4,30.10,ENE,67,5.8,-999.0,27,-99.99,,,0.00,Acu-Link.com,2015-01-25 10:04:00,
2015-01-25 03:19:00,59.5,25.5,30.10,NE,45,3.8,-999.0,27,-99.99,,,0.00,Acu-Link.com,2015-01-25 10:19:00,
2015-01-25 03:35:00,59.5,25.5,30.09,NE,45,4.3,-999.0,27,-99.99,,,0.00,Acu-Link.com,2015-01-25 10:35:00,
2015-01-25 03:50:00,59.9,26.7,30.10,NNE,22,7.8,-999.0,28,-99.99,,,0.00,Acu-Link.com,2015-01-25 10:50:00,
2015-01-25 04:05:00,60.1,26.9,30.09,NNE,22,5.8,-999.0,28,-99.99,,,0.00,Acu-Link.com,2015-01-25 11:05:00,
2015-01-25 04:20:00,60.1,26.9,30.10,NE,45,4.7,-999.0,28,-99.99,,,0.00,Acu-Link.com,2015-01-25 11:20:00,
2015-01-25 04:35:00,59.5,26.4,30.09,ENE,67,3.8,-999.0,28,-99.99,,,0.00,Acu-Link.com,2015-01-25 11:35:00,
2015-01-25 04:51:00,58.5,26.3,30.09,ENE,67,4.3,-999.0,29,-99.99,,,0.00,Acu-Link.com,2015-01-25 11:51:00,
2015-01-25 05:06:00,58.3,26.2,30.09,NE,45,4.7,-999.0,29,-99.99,,,0.00,Acu-Link.com,2015-01-25 12:06:00,
2015-01-25 05:21:00,59.2,27.0,30.09,NNE,22,7.4,-999.0,29,-99.99,,,0.00,Acu-Link.com,2015-01-25 12:21:00,
2015-01-25 05:36:00,59.2,27.0,30.09,NE,45,5.1,-999.0,29,-99.99,,,0.00,Acu-Link.com,2015-01-25 12:36:00,
2015-01-25 05:51:00,58.5,26.3,30.09,NE,45,3.8,-999.0,29,-99.99,,,0.00,Acu-Link.com,2015-01-25 12:51:00,
2015-01-25 06:07:00,58.3,26.2,30.09,NE,45,4.7,-999.0,29,-99.99,,,0.00,Acu-Link.com,2015-01-25 13:07:00,
2015-01-25 06:22:00,57.6,26.4,30.09,NE,45,3.8,-999.0,30,-99.99,,,0.00,Acu-Link.com,2015-01-25 13:22:00,
2015-01-25 06:37:00,56.1,26.7,30.10,ENE,67,5.1,-999.0,32,-99.99,,,0.00,Acu-Link.com,2015-01-25 13:37:00,
2015-01-25 06:52:00,55.6,26.9,30.10,ENE,67,6.3,-999.0,33,-99.99,,,0.00,Acu-Link.com,2015-01-25 13:52:00,
2015-01-25 07:07:00,55.2,27.4,30.11,East,90,4.7,-999.0,34,-99.99,,,0.00,Acu-Link.com,2015-01-25 14:07:00,
2015-01-25 07:23:00,55.8,27.8,30.11,NNE,22,6.7,-999.0,34,-99.99,,,0.00,Acu-Link.com,2015-01-25 14:23:00,
2015-01-25 07:38:00,56.8,28.0,30.12,NE,45,8.3,-999.0,33,-99.99,,,0.00,Acu-Link.com,2015-01-25 14:38:00,
2015-01-25 07:53:00,56.8,28.0,30.12,NNE,22,7.4,-999.0,33,-99.99,,,0.00,Acu-Link.com,2015-01-25 14:53:00,
2015-01-25 08:08:00,56.8,28.0,30.12,NE,45,6.3,-999.0,33,-99.99,,,0.00,Acu-Link.com,2015-01-25 15:08:00,
2015-01-25 08:24:00,57.0,28.2,30.12,NNE,22,5.1,-999.0,33,-99.99,,,0.00,Acu-Link.com,2015-01-25 15:24:00,
2015-01-25 08:39:00,58.3,28.6,30.12,NNE,22,8.9,-999.0,32,-99.99,,,0.00,Acu-Link.com,2015-01-25 15:39:00,
2015-01-25 08:54:00,58.3,28.6,30.12,North,0,8.9,-999.0,32,-99.99,,,0.00,Acu-Link.com,2015-01-25 15:54:00,
2015-01-25 09:09:00,59.2,29.3,30.11,North,0,9.8,-999.0,32,-99.99,,,0.00,Acu-Link.com,2015-01-25 16:09:00,
2015-01-25 09:24:00,61.3,30.4,30.12,North,0,8.3,-999.0,31,-99.99,,,0.00,Acu-Link.com,2015-01-25 16:24:00,
2015-01-25 09:40:00,61.9,31.7,30.12,North,0,9.4,-999.0,32,-99.99,,,0.00,Acu-Link.com,2015-01-25 16:40:00,
2015-01-25 09:57:00,62.6,33.1,30.12,North,0,8.9,-999.0,33,-99.99,,,0.00,Acu-Link.com,2015-01-25 16:57:00,